Tracking 31027 objects as of 18-Jul-2025
HD Live streaming from Space Station
objects crossing your sky now

CZ-3B R/B

Track CZ-3B R/B now!
10-day predictions


NORAD ID: 56565
Int'l Code: 2023-066B
Perigee: 167.0 km
Apogee: 17,184.2 km
Inclination: 28.1 °
Period: 306.1 minutes
Semi major axis: 15046 km
RCS: Unknown
Launch date: May 17, 2023
Source: People's Republic of China (PRC)
Launch site: Xichang Space Center, China (XSC)

Note: This is a ROCKET BODY
Your satellite tracking list
Your tracking list is empty




NASA's NSSDC Master Catalog

Two Line Element Set (TLE):
1 56565U 23066B   25199.16984375  .00146904 -16164-6  94305-3 0  9996
2 56565  28.1354 118.1203 5654807 301.5259  15.3239  4.70376287 27992
Source of the keplerian elements: AFSPC